Total_Precipitation_Accumulation
0.03 0.04 0.04 0.05 0.07 0.06 0.05 0.07 0.09 0.10 0.10 0.12 0.17 0.26 0.42 0.57 0.65 0.80 0.97 1.04 1.10 1.30 1.82 2.25 2.38 2.43 2.74 3.00 3.17 3.13 3.33 3.72 3.96 4.33 4.33 4.52 4.98 5.31 5.41 5.51 5.51 5.43 5.35 5.35
0.05 0.05 0.05 0.04 0.05 0.05 0.03 0.06 0.09 0.12 0.14 0.15 0.22 0.35 0.45 0.58 0.68 0.86 1.07 1.13 1.11 1.31 1.68 2.10 2.30 2.61 2.87 3.02 3.26 3.37 3.50 3.99 4.47 5.03 5.56 5.93 6.29 6.28 6.36 6.30 6.19 5.89 5.71 5.62
0.06 0.04 0.02 0.03 0.03 0.03 0.04 0.05 0.08 0.11 0.16 0.20 0.27 0.48 0.58 0.68 0.78 0.88 1.01 1.07 1.17 1.41 1.75 1.97 2.18 2.46 2.72 2.98 3.24 3.38 3.73 4.40 5.24 5.78 6.27 6.81 7.11 6.80 6.51 6.22 6.14 6.06 5.99 5.89
0.05 0.03 0.03 0.03 0.04 0.04 0.06 0.06 0.07 0.10 0.17 0.29 0.32 0.60 0.87 0.96 1.06 1.00 1.08 1.24 1.38 1.54 1.72 1.92 2.09 2.31 2.60 2.97 3.12 3.33 3.98 4.71 5.37 5.95 6.59 7.19 7.47 7.50 7.26 6.69 6.20 5.79 5.51 5.30
0.05 0.03 0.04 0.04 0.05 0.04 0.05 0.05 0.07 0.10 0.17 0.28 0.33 0.60 1.11 1.30 1.36 1.35 1.42 1.46 1.48 1.50 1.64 1.81 1.96 2.14 2.28 2.64 3.14 3.50 4.10 4.80 5.44 6.20 6.96 7.43 7.66 7.64 7.26 6.47 5.69 5.13 4.83 4.56
0.04 0.04 0.05 0.05 0.04 0.05 0.05 0.08 0.11 0.16 0.23 0.37 0.36 0.58 1.22 1.57 1.73 1.71 1.65 1.65 1.58 1.46 1.45 1.52 1.72 1.88 2.18 2.56 2.97 3.47 3.79 4.39 5.08 5.70 6.29 6.54 6.73 6.66 6.23 5.81 5.32 4.90 4.39 3.95
0.07 0.07 0.06 0.06 0.05 0.06 0.07 0.15 0.33 0.48 0.53 0.48 0.36 0.62 1.25 1.55 1.51 1.51 1.52 1.58 1.53 1.36 1.38 1.59 1.86 1.86 2.14 2.45 2.84 3.31 3.71 4.07 4.58 5.14 5.65 5.90 6.08 5.98 5.48 5.05 4.62 4.23 3.74 3.36
0.15 0.12 0.08 0.06 0.07 0.07 0.07 0.15 0.39 0.61 0.63 0.61 0.56 0.94 1.42 1.46 1.33 1.23 1.21 1.25 1.39 1.42 1.45 1.56 1.70 1.79 2.10 2.35 2.62 3.05 3.38 3.74 3.96 4.21 4.60 4.86 5.03 4.90 4.57 4.11 3.64 3.35 3.06 2.74
0.23 0.19 0.09 0.06 0.06 0.07 0.10 0.14 0.22 0.29 0.36 0.63 0.97 1.26 1.63 1.56 1.42 1.29 1.15 1.17 1.28 1.26 1.30 1.44 1.62 1.75 1.95 2.27 2.63 2.89 3.05 3.26 3.46 3.69 3.78 3.78 3.90 3.83 3.59 3.31 3.00 2.71 2.42 2.13
0.20 0.24 0.12 0.07 0.06 0.09 0.10 0.13 0.17 0.30 0.61 0.88 1.13 1.61 1.95 2.02 1.90 1.76 1.43 1.31 1.25 1.28 1.28 1.33 1.48 1.68 1.77 1.87 2.22 2.56 2.65 2.78 2.87 2.97 3.04 2.97 3.04 2.94 2.88 2.71 2.47 2.21 2.04 1.81
0.21 0.26 0.18 0.11 0.11 0.13 0.14 0.15 0.20 0.31 0.45 0.85 1.25 1.84 2.01 2.26 2.34 2.20 1.82 1.64 1.57 1.51 1.42 1.41 1.49 1.56 1.69 1.83 2.01 2.27 2.49 2.51 2.53 2.65 2.64 2.55 2.61 2.59 2.57 2.45 2.29 2.14 2.07 1.91
0.21 0.28 0.28 0.19 0.16 0.13 0.14 0.18 0.27 0.51 0.55 0.61 1.10 2.02 2.28 2.39 2.33 2.06 1.87 1.73 1.65 1.56 1.41 1.39 1.39 1.38 1.46 1.69 1.93 2.10 2.24 2.26 2.31 2.39 2.46 2.55 2.56 2.48 2.35 2.17 2.05 1.93 1.82 1.66
0.18 0.34 0.60 0.61 0.47 0.27 0.19 0.19 0.26 0.35 0.51 0.68 1.19 2.26 2.64 2.56 2.40 2.12 1.99 1.89 1.84 1.75 1.57 1.47 1.38 1.37 1.40 1.55 1.67 1.83 2.04 2.15 2.21 2.20 2.17 2.33 2.39 2.26 2.10 1.97 1.90 1.79 1.65 1.58
0.15 0.33 0.71 1.19 0.93 0.53 0.33 0.24 0.30 0.45 0.72 0.86 1.13 1.65 1.94 2.02 2.11 2.15 2.31 2.33 2.11 1.92 1.72 1.50 1.45 1.41 1.45 1.54 1.57 1.62 1.75 1.92 2.07 2.16 2.31 2.35 2.27 2.12 2.02 1.83 1.65 1.55 1.46 1.49
0.21 0.40 0.42 0.46 0.45 0.46 0.47 0.40 0.37 0.49 0.59 0.91 1.21 1.55 1.88 1.95 2.00 2.07 2.24 2.17 1.91 1.76 1.61 1.48 1.48 1.53 1.54 1.50 1.50 1.53 1.67 1.75 1.97 2.09 2.09 2.05 1.98 1.91 1.89 1.82 1.67 1.50 1.37 1.33
0.24 0.41 0.45 0.49 0.40 0.49 0.49 0.48 0.51 0.58 0.68 0.91 1.24 1.71 1.94 1.95 1.97 2.04 2.16 2.13 1.93 1.63 1.49 1.44 1.42 1.52 1.47 1.42 1.39 1.36 1.49 1.52 1.65 1.79 1.79 1.73 1.72 1.76 1.72 1.70 1.58 1.48 1.37 1.31
0.34 0.52 0.72 0.71 0.46 0.68 0.96 0.74 0.75 0.84 0.87 1.06 1.47 1.68 1.75 1.86 1.90 1.95 2.08 2.18 2.06 1.78 1.65 1.68 1.72 1.72 1.54 1.42 1.37 1.41 1.47 1.50 1.56 1.63 1.58 1.59 1.59 1.56 1.53 1.40 1.35 1.39 1.42 1.34
0.36 0.58 0.74 0.74 0.88 1.39 1.22 0.69 0.77 0.93 0.95 0.98 1.11 1.24 1.42 1.55 1.67 1.83 2.00 2.16 2.15 2.02 1.97 1.98 1.94 1.81 1.62 1.49 1.45 1.47 1.47 1.51 1.59 1.57 1.50 1.45 1.45 1.40 1.37 1.35 1.33 1.34 1.34 1.30
0.26 0.54 0.82 1.03 1.33 1.48 1.20 0.74 0.72 1.06 1.23 0.96 0.97 0.99 1.04 1.08 1.26 1.68 1.83 1.90 2.00 1.99 1.97 1.89 1.82 1.72 1.60 1.48 1.43 1.40 1.41 1.39 1.40 1.35 1.32 1.25 1.27 1.32 1.33 1.30 1.36 1.35 1.26 1.21
0.27 0.45 0.91 1.19 1.58 1.80 1.50 0.74 0.56 0.98 1.69 1.17 0.97 1.02 1.07 1.20 1.47 1.56 1.45 1.45 1.55 1.57 1.61 1.67 1.68 1.58 1.48 1.39 1.30 1.28 1.32 1.31 1.27 1.23 1.23 1.14 1.13 1.19 1.26 1.28 1.31 1.23 1.17 1.14
0.62 0.72 0.96 1.24 1.60 1.75 0.99 0.59 0.77 1.63 2.00 1.35 1.13 1.15 1.28 1.38 1.36 1.13 1.04 1.11 1.22 1.35 1.37 1.39 1.52 1.56 1.40 1.20 1.15 1.23 1.21 1.20 1.08 1.06 1.13 1.12 1.10 1.11 1.12 1.14 1.19 1.15 1.10 1.09
0.83 1.01 1.12 1.32 1.77 1.91 0.88 0.72 1.20 1.44 1.13 1.07 1.08 1.11 1.13 1.04 0.89 0.85 0.87 0.90 0.95 1.13 1.25 1.25 1.38 1.34 1.19 1.06 1.10 1.19 1.17 1.06 0.98 1.04 1.16 1.15 1.13 1.02 1.00 1.13 1.18 1.12 1.09 1.04
0.74 0.92 1.17 1.40 1.65 1.31 0.75 0.76 0.84 0.80 0.85 0.84 0.83 0.77 0.73 0.74 0.72 0.71 0.79 0.85 0.89 0.99 1.11 1.11 1.18 1.18 1.09 1.03 1.08 1.14 1.11 1.00 1.04 1.12 1.17 1.18 1.10 1.08 1.08 1.11 1.12 1.05 1.02 0.94
0.65 0.52 0.73 1.04 1.04 0.76 0.67 0.66 0.65 0.64 0.69 0.68 0.70 0.74 0.64 0.66 0.67 0.68 0.71 0.81 0.90 0.96 0.98 0.99 1.06 1.07 1.02 0.94 0.94 0.97 0.91 0.91 1.05 1.17 1.15 1.14 1.13 1.11 1.06 1.01 0.97 0.94 0.92 0.86
0.68 0.66 0.81 0.97 0.82 0.71 0.67 0.59 0.60 0.65 0.64 0.62 0.63 0.71 0.70 0.67 0.74 0.72 0.73 0.80 0.87 0.93 0.93 0.98 1.06 1.05 0.94 0.86 0.82 0.81 0.84 0.93 1.04 1.06 1.00 0.98 1.01 0.99 0.94 0.83 0.77 0.75 0.70 0.62
0.64 0.78 0.96 0.99 0.81 0.84 0.77 0.60 0.54 0.65 0.77 0.69 0.67 0.73 0.69 0.66 0.73 0.80 0.82 0.80 0.82 0.90 0.93 0.99 0.97 0.94 0.88 0.78 0.74 0.77 0.80 0.82 0.92 0.92 0.86 0.83 0.85 0.84 0.78 0.73 0.67 0.62 0.51 0.47